This is the latest recevied weather packets stored in our database for station/object KC2G. If no packets are shown the sender has not sent any weather packets the latest 10 day(s).
| Time | Temp. | Humidity | Pressure | Rain* | Wind** | Luminosity | Snow |
|---|---|---|---|---|---|---|---|
| 1777854655 | 11.67° C | 45% | 1010.5 hPa | 0 mm | 0 m/s | - | - |
| 1777853814 | 13.33° C | 38% | 1009.8 hPa | 0 mm | 0 m/s | - | - |
| 1777853754 | 12.22° C | 42% | 1010.2 hPa | 0 mm | 0 m/s | - | - |
| 1777852902 | 12.78° C | 39% | 1010 hPa | 0 mm | 0 m/s | - | - |
| 1777852854 | 12.78° C | 39% | 1010 hPa | 0 mm | 0 m/s | - | - |
| 1777851955 | 13.33° C | 38% | 1009.8 hPa | 0 mm | 0 m/s | - | - |
| 1777851892 | 13.89° C | 33% | 1009.4 hPa | 0 mm | 0.45 m/s, 302° | - | - |
| 1777851055 | 13.89° C | 35% | 1009.5 hPa | 0 mm | 0.45 m/s, 189° | - | - |
| 1777850154 | 13.89° C | 33% | 1009.4 hPa | 0 mm | 0.45 m/s, 302° | - | - |
| 1777849976 | 14.44° C | 31% | 1009.1 hPa | 0 mm | 0.45 m/s, 320° | - | - |
| 1777849255 | 13.89° C | 31% | 1009.3 hPa | 0 mm | 0.45 m/s, 300° | - | - |
| 1777848354 | 14.44° C | 31% | 1009.1 hPa | 0 mm | 0.45 m/s, 320° | - | - |
| 1777847455 | 14.44° C | 33% | 1009 hPa | 0 mm | 0.45 m/s, 214° | - | - |
| 1777846555 | 14.44° C | 31% | 1009.2 hPa | 0 mm | 0.45 m/s, 267° | - | - |
| 1777846142 | 14.44° C | 29% | 1009.1 hPa | 0 mm | 0.89 m/s, 265° | - | - |
| 1777845775 | 14.44° C | 30% | 1009.1 hPa | 0 mm | 0.45 m/s, 297° | - | - |
| 1777845655 | 14.44° C | 30% | 1009.1 hPa | 0 mm | 0.45 m/s, 297° | - | - |
| 1777845028 | 14.44° C | 29% | 1009.1 hPa | 0 mm | 0.89 m/s, 265° | - | - |
| 1777844803 | 14.44° C | 29% | 1009.1 hPa | 0 mm | 0.89 m/s, 265° | - | - |
| 1777844754 | 14.44° C | 29% | 1009.1 hPa | 0 mm | 0.89 m/s, 265° | - | - |
| 1777844222 | 14.44° C | 29% | 1009 hPa | 0 mm | 0.89 m/s, 264° | - | - |
| 1777844125 | 14.44° C | 29% | 1009.1 hPa | 0 mm | 0.89 m/s, 281° | - | - |
| 1777843855 | 14.44° C | 29% | 1009.1 hPa | 0 mm | 0.89 m/s, 281° | - | - |
| 1777842954 | 14.44° C | 29% | 1009 hPa | 0 mm | 0.89 m/s, 264° | - | - |
| 1777842304 | 14.44° C | 29% | 1009.1 hPa | 0 mm | 1.34 m/s, 307° | - | - |
* Rain latest hour (hover to see other rain measurements)
** Current wind speed in m/s (hover to see current wind gust speed)